Location: Pabrico
(37.5827°N, 122.0063°W)
Time: 11:23:00
(UTC+00:00)

Envisat - Visible Passes

Search period start: 23 June 2024 00:00
Search period end: 03 July 2024 00:00
Orbit: 762 x 764 km, 98.3° (Epoch: 22 June)

Date Brightness Start Highest point End Pass type
(mag) Time Alt. Az. Time Alt. Az. Time Alt. Az.
23 Jun 4.9 10:28:08 10° NE 10:32:11 24° E 10:36:11 10° SSE visible
23 Jun 3.8 12:06:34 10° N 12:11:11 36° WNW 12:15:45 10° SW visible
24 Jun 3.0 11:28:52 10° N 11:33:57 84° WNW 11:38:45 11° SSW visible
25 Jun 4.0 10:51:45 10° NNE 10:56:32 41° E 11:00:55 12° SSE visible
26 Jun 5.3 10:15:34 10° NE 10:18:55 18° E 10:22:16 10° SE visible
26 Jun 3.4 11:53:14 10° N 11:58:06 48° WNW 12:02:57 10° SW visible
27 Jun 3.1 11:15:44 10° NNE 11:20:49 73° ESE 11:25:22 13° S visible
28 Jun 4.5 10:38:52 10° NE 10:43:20 31° E 10:47:31 11° SSE visible
29 Jun 5.5 10:03:24 10° ENE 10:05:39 13° E 10:07:54 10° ESE visible
29 Jun 3.1 11:39:59 10° N 11:45:00 64° WNW 11:49:50 11° SSW visible
30 Jun 3.6 11:02:41 10° NNE 11:07:39 54° E 11:11:58 14° S visible
01 Jul 4.9 10:26:07 10° NE 10:30:06 23° E 10:34:03 10° SSE visible
01 Jul 3.7 12:04:29 10° N 12:09:07 37° WNW 12:13:44 10° SW visible
02 Jul 3.0 11:26:47 10° NNE 11:31:53 86° WNW 11:36:25 13° SSW visible
